Weather History for TNCB - August, 2013

Change the Weather History Date:

Thursday, August 8, 2013

  Actual Average Record
Temperature  
Mean Temperature 84 °F -  
Max Temperature 89 °F 88 °F 91 °F (1998)
Min Temperature 78 °F 81 °F 78 °F (2012)
Cooling Degree Days 18    
Growing Degree Days 34 (Base 50)    
Moisture  
Dew Point 77 °F    
Average Humidity 77    
Maximum Humidity 94    
Minimum Humidity 58    
Precipitation  
Precipitation 0.00 in - - ()
Sea Level Pressure  
Sea Level Pressure 29.80 in    
Wind  
Wind Speed 7 mph ()    
Max Wind Speed 16 mph    
Max Gust Speed -    
Visibility 8.5 miles    
Events      
Averages and records for this station are not official NWS values.
T = Trace of Precipitation, MM = Missing Value Source: Averaged Metar Reports

Daily Weather History Graph

Daily Weather History Graph

Search for Another Location

Airport or City:

Trip Planner

Search our weather history database for the weather conditions in past years. The results will help you decide how hot, cold, wet, or windy it might be!

Date:

Astronomy

Aug. 08, 2013 Rise Set
Actual Time 6:21 AM AST 6:56 PM AST
Civil Twilight 5:58 AM AST 7:18 PM AST
Nautical Twilight 5:32 AM AST 7:44 PM AST
Astronomical Twilight 5:06 AM AST 8:10 PM AST
Moon 7:36 AM AST (8/8) 8:06 PM AST (8/8)
Length of Visible Light 13h 19m
Length of Day
12h 35m
Waxing Crescent, 3% of the Moon is Illuminated
Aug 8
Waxing Crescent
Aug 14
First Quarter
Aug 20
Full
Aug 28
Last Quarter
Sep 5
New

Hourly Weather History & Observations

Time (AST) Temp. Heat Index Dew Point Humidity Pressure Visibility Wind Dir Wind Speed Gust Speed Precip Events Conditions
12:55 AM 82.4 °F 90.9 °F 77.0 °F 84% 29.83 in - East 9.2 mph - N/A   Unknown
1:55 AM 82.4 °F 90.9 °F 77.0 °F 84% 29.80 in - ENE 9.2 mph - N/A   Unknown
2:55 AM 80.6 °F 87.1 °F 77.0 °F 89% 29.80 in - East 8.1 mph - N/A   Unknown
3:55 AM 80.6 °F 88.1 °F 78.8 °F 94% 29.80 in - East 5.8 mph - N/A   Unknown
4:55 AM 80.6 °F 87.1 °F 77.0 °F 89% 29.80 in - East 4.6 mph - N/A   Unknown
5:55 AM 78.8 °F - 77.0 °F 94% 29.80 in - ENE 4.6 mph - N/A   Unknown
7:00 AM 80.6 °F 88.1 °F 78.8 °F 94% 29.83 in 6.2 mi Variable 1.2 mph - N/A   Partly Cloudy
8:00 AM 82.4 °F 92.4 °F 78.8 °F 89% 29.83 in 6.2 mi SE 4.6 mph - N/A   Partly Cloudy
9:00 AM 84.2 °F 94.1 °F 77.0 °F 79% 29.86 in 6.2 mi ESE 5.8 mph - N/A   Scattered Clouds
10:00 AM 87.8 °F 102.5 °F 78.8 °F 75% - 6.2 mi SE 6.9 mph - N/A   Scattered Clouds
11:00 AM 86.0 °F 96.9 °F 77.0 °F 74% 29.83 in 6.2 mi SE 6.9 mph - N/A   Scattered Clouds
11:55 AM 89.6 °F 99.8 °F 75.2 °F 62% 29.83 in 6.2 mi SE 9.2 mph - N/A   Scattered Clouds
1:00 PM 89.6 °F 102.2 °F 77.0 °F 66% 29.80 in 6.2 mi South 9.2 mph - N/A   Scattered Clouds
2:00 PM 89 °F - 76 °F 58% 29.80 in 19 mi ESE 9.2 mph - -   Partly Cloudy
2:00 PM 89.6 °F 102.2 °F 77.0 °F 66% 29.80 in 6.2 mi ESE 9.2 mph - N/A   Scattered Clouds
3:00 PM 87.8 °F 99.7 °F 77.0 °F 70% 29.77 in 6.2 mi SSE 10.4 mph - N/A   Scattered Clouds
4:00 PM 87.8 °F 95.6 °F 73.4 °F 62% 29.74 in 6.2 mi East 8.1 mph - N/A   Scattered Clouds
5:00 PM 88 °F - 77 °F 63% 29.74 in 19 mi East 10.4 mph - -   Partly Cloudy
5:00 PM 87.8 °F 99.7 °F 77.0 °F 70% 29.74 in 6.2 mi East 10.4 mph - N/A   Scattered Clouds
6:00 PM 86.0 °F 95.1 °F 75.2 °F 70% 29.74 in - NE 9.2 mph - N/A   Unknown
7:00 PM 84.2 °F 94.1 °F 77.0 °F 79% 29.77 in 6.2 mi NE 11.5 mph - N/A   Partly Cloudy
8:00 PM 83 °F - 78 °F 80% 29.79 in 19 mi NE 12.7 mph - -   Scattered Clouds
8:00 PM 84.2 °F 94.1 °F 77.0 °F 79% 29.77 in 6.2 mi NE 12.7 mph - N/A   Partly Cloudy
11:55 PM 82.4 °F 90.9 °F 77.0 °F 84% 29.86 in 6.2 mi ENE 16.1 mph - N/A   Partly Cloudy